,,Stat6,,Stat2,,Stat8,,Stat9,,Stat10,,Wind1,,Wind1,
time,status,PA1M_AVG,status,PR1M_SUM,status,RH1M_AVG,status,SR1M_AVG,status,TA1M_AVG,status,W1dAve1m,status,W1sAve1m,
2005-05-19, 00:00:00,VALID,917.961,VALID,0,VALID,96.2198,VALID,0.0169808,VALID,21.6348,VALID,358,VALID,1.08464,
2005-05-19, 00:01:00,VALID,917.963,VALID,0,VALID,96.2808,VALID,0,VALID,21.5856,VALID,12,VALID,1.30087,
2005-05-19, 00:02:00,VALID,917.971,VALID,0,VALID,96.3457,VALID,0.0169808,VALID,21.5667,VALID,19,VALID,1.2783,
2005-05-19, 00:03:00,VALID,917.986,VALID,0,VALID,96.6572,VALID,0,VALID,21.557,VALID,16,VALID,0.975898,
2005-05-19, 00:04:00,VALID,917.989,VALID,0,VALID,96.7424,VALID,0,VALID,21.5611,VALID,18,VALID,1.06101,
2005-05-19, 00:05:00,VALID,917.987,VALID,0,VALID,96.7627,VALID,0,VALID,21.5482,VALID,12,VALID,0.76875,
2005-05-19, 00:06:00,VALID,917.98,VALID,0,VALID,96.8022,VALID,-0.0339617,VALID,21.5229,VALID,11,VALID,0.668713,
2005-05-19, 00:07:00,VALID,917.964,VALID,0,VALID,96.9586,VALID,-0.0849042,VALID,21.5261,VALID,21,VALID,0.534647,
2005-05-19, 00:08:00,VALID,917.95,VALID,0,VALID,96.9929,VALID,-0.101885,VALID,21.5498,VALID,27,VALID,0.543324,
2005-05-19, 00:09:00,VALID,917.929,VALID,0,VALID,96.867,VALID,-0.101885,VALID,21.5334,VALID,24,VALID,0.310192,
2005-05-19, 00:10:00,VALID,917.921,VALID,0,VALID,96.7208,VALID,-0.0849042,VALID,21.5234,VALID,14,VALID,0.924107,
2005-05-19, 00:11:00,VALID,917.939,VALID,0,VALID,96.6585,VALID,-0.101885,VALID,21.4938,VALID,15,VALID,0.880859,
2005-05-19, 00:12:00,VALID,917.948,VALID,0,VALID,96.7246,VALID,-0.101885,VALID,21.4814,VALID,33,VALID,0.412016,
2005-05-19, 00:13:00,VALID,917.952,VALID,0,VALID,96.6979,VALID,-0.0849042,VALID,21.4884,VALID,22,VALID,0.799851,
2005-05-19, 00:14:00,VALID,917.957,VALID,0,VALID,96.3469,VALID,-0.101885,VALID,21.4628,VALID,345,VALID,1.26738,
2005-05-19, 00:15:00,VALID,917.949,VALID,0,VALID,96.4003,VALID,-0.101885,VALID,21.4141,VALID,9,VALID,0.949219,
2005-05-19, 00:16:00,VALID,917.943,VALID,0,VALID,96.5148,VALID,-0.101885,VALID,21.3815,VALID,15,VALID,0.889453,
2005-05-19, 00:17:00,VALID,917.95,VALID,0,VALID,96.6598,VALID,-0.101885,VALID,21.3457,VALID,9,VALID,0.840021,
2005-05-19, 00:18:00,VALID,917.925,VALID,0,VALID,96.7475,VALID,-0.0849042,VALID,21.3296,VALID,344,VALID,0.782986,
2005-05-19, 00:19:00,VALID,917.928,VALID,0,VALID,96.7729,VALID,-0.0849042,VALID,21.3105,VALID,12,VALID,0.838034,
2005-05-19, 00:20:00,VALID,917.918,VALID,0,VALID,96.8085,VALID,-0.0849042,VALID,21.2978,VALID,24,VALID,0.698611,
2005-05-19, 00:21:00,VALID,917.93,VALID,0,VALID,96.778,VALID,-0.0849042,VALID,21.2844,VALID,26,VALID,0.21532,
2005-05-19, 00:22:00,VALID,917.914,VALID,0,VALID,96.8594,VALID,-0.0679233,VALID,21.2644,VALID,26,VALID,0.498757,
2005-05-19, 00:23:00,VALID,917.911,VALID,0,VALID,96.8174,VALID,-0.0509425,VALID,21.251,VALID,353,VALID,0.425509,
2005-05-19, 00:24:00,VALID,917.9,VALID,0,VALID,96.8505,VALID,-0.0679233,VALID,21.2356,VALID,19,VALID,0.435069,
2005-05-19, 00:25:00,VALID,917.909,VALID,0,VALID,96.8886,VALID,-0.101885,VALID,21.2324,VALID,20,VALID,0.159091,
2005-05-19, 00:26:00,VALID,917.915,VALID,0,VALID,96.9001,VALID,-0.101885,VALID,21.2125,VALID,20,VALID,0.00114329,
2005-05-19, 00:27:00,VALID,917.899,VALID,0,VALID,96.9179,VALID,-0.0679233,VALID,21.2257,VALID,20,VALID,0.028343,
2005-05-19, 00:28:00,VALID,917.882,VALID,0,VALID,96.7805,VALID,-0.0679233,VALID,21.2157,VALID,9,VALID,0.611235,
2005-05-19, 00:29:00,VALID,917.871,VALID,0,VALID,96.6801,VALID,-0.0679233,VALID,21.1963,VALID,11,VALID,0.786086,
2005-05-19, 00:30:00,VALID,917.866,VALID,0,VALID,96.6356,VALID,-0.0509425,VALID,21.174,VALID,15,VALID,0.40625,
2005-05-19, 00:31:00,VALID,917.862,VALID,0,VALID,96.7564,VALID,-0.0849042,VALID,21.1549,VALID,15,VALID,0.525484,
2005-05-19, 00:32:00,VALID,917.842,VALID,0,VALID,96.867,VALID,-0.0849042,VALID,21.1291,VALID,15,VALID,0.399368,
2005-05-19, 00:33:00,VALID,917.846,VALID,0,VALID,96.8403,VALID,-0.0849042,VALID,21.1129,VALID,343,VALID,0.542597,
2005-05-19, 00:34:00,VALID,917.826,VALID,0,VALID,96.8327,VALID,-0.0849042,VALID,21.0933,VALID,343,VALID,0.128018,
2005-05-19, 00:35:00,VALID,917.833,VALID,0,VALID,96.8963,VALID,-0.0849042,VALID,21.0714,VALID,343,VALID,0.0732195,
2005-05-19, 00:36:00,VALID,917.827,VALID,0,VALID,96.9726,VALID,-0.0509425,VALID,21.061,VALID,343,VALID,0,
2005-05-19, 00:37:00,VALID,917.828,VALID,0,VALID,96.9471,VALID,0.0339617,VALID,21.0532,VALID,343,VALID,0.000571646,
2005-05-19, 00:38:00,VALID,917.833,VALID,0,VALID,96.9052,VALID,0.0339617,VALID,21.0308,VALID,343,VALID,0.0922965,
2005-05-19, 00:39:00,VALID,917.848,VALID,0,VALID,96.6381,VALID,0.0509425,VALID,21.009,VALID,343,VALID,0.185243,
2005-05-19, 00:40:00,VALID,917.848,VALID,0,VALID,96.5885,VALID,0.0679233,VALID,20.9598,VALID,343,VALID,0.289648,
2005-05-19, 00:41:00,VALID,917.842,VALID,0,VALID,96.7297,VALID,0.0339617,VALID,20.9143,VALID,343,VALID,0.302269,
2005-05-19, 00:42:00,VALID,917.834,VALID,0,VALID,96.8823,VALID,0.0339617,VALID,20.8955,VALID,343,VALID,0.305398,
2005-05-19, 00:43:00,VALID,917.824,VALID,0,VALID,96.7945,VALID,0.0169808,VALID,20.8502,VALID,343,VALID,0.14577,
2005-05-19, 00:44:00,VALID,917.809,VALID,0,VALID,97.0133,VALID,0.0169808,VALID,20.8147,VALID,343,VALID,0.213542,
2005-05-19, 00:45:00,VALID,917.797,VALID,0,VALID,97.3273,VALID,0.0339617,VALID,20.8112,VALID,343,VALID,0.275781,
2005-05-19, 00:46:00,VALID,917.791,VALID,0,VALID,97.5791,VALID,0.0169808,VALID,20.812,VALID,343,VALID,0.0870276,
2005-05-19, 00:47:00,VALID,917.777,VALID,0,VALID,97.7915,VALID,0.0169808,VALID,20.805,VALID,343,VALID,0.0668826,
2005-05-19, 00:48:00,VALID,917.793,VALID,0,VALID,98.0216,VALID,0.0339617,VALID,20.7983,VALID,343,VALID,0.132813,
2005-05-19, 00:49:00,VALID,917.793,VALID,0,VALID,98.07,VALID,0.0679233,VALID,20.8214,VALID,343,VALID,0,
2005-05-19, 00:50:00,VALID,917.814,VALID,0,VALID,98.1196,VALID,0.0169808,VALID,20.8247,VALID,343,VALID,0,
2005-05-19, 00:51:00,VALID,917.805,VALID,0,VALID,98.1475,VALID,0.0169808,VALID,20.8212,VALID,343,VALID,0,
2005-05-19, 00:52:00,VALID,917.799,VALID,0,VALID,98.1323,VALID,0.0509425,VALID,20.8115,VALID,343,VALID,0,
2005-05-19, 00:53:00,VALID,917.787,VALID,0,VALID,97.8131,VALID,0.0169808,VALID,20.8018,VALID,343,VALID,0,
2005-05-19, 00:54:00,VALID,917.762,VALID,0,VALID,97.5689,VALID,0,VALID,20.7795,VALID,343,VALID,0,
2005-05-19, 00:55:00,VALID,917.733,VALID,0,VALID,97.5969,VALID,0.0849042,VALID,20.7598,VALID,343,VALID,0.0142912,
2005-05-19, 00:56:00,VALID,917.706,VALID,0,VALID,97.7775,VALID,0.0509425,VALID,20.7369,VALID,343,VALID,0.228423,
2005-05-19, 00:57:00,VALID,917.683,VALID,0,VALID,97.8233,VALID,0.0509425,VALID,20.7243,VALID,344,VALID,0.415206,
2005-05-19, 00:58:00,VALID,917.672,VALID,0,VALID,97.8907,VALID,0.0339617,VALID,20.6985,VALID,346,VALID,0.398237,
2005-05-19, 00:59:00,VALID,917.65,VALID,0,VALID,97.986,VALID,0.0169808,VALID,20.7025,VALID,350,VALID,0.41311,
2005-05-19, 01:00:00,VALID,917.64,VALID,0,VALID,97.7088,VALID,0,VALID,20.6565,VALID,350,VALID,0.208333,
2005-05-19, 01:01:00,VALID,917.628,VALID,0,VALID,97.8983,VALID,0,VALID,20.6309,VALID,350,VALID,0.159339,
2005-05-19, 01:02:00,VALID,917.62,VALID,0,VALID,98.0293,VALID,0.0339617,VALID,20.6212,VALID,350,VALID,0.319511,
2005-05-19, 01:03:00,VALID,917.605,VALID,0,VALID,98.1615,VALID,0.0509425,VALID,20.6314,VALID,350,VALID,0.259527,
2005-05-19, 01:04:00,VALID,917.57,VALID,0,VALID,98.2938,VALID,0.0509425,VALID,20.6247,VALID,350,VALID,0.279433,
2005-05-19, 01:05:00,VALID,917.541,VALID,0,VALID,98.2645,VALID,0.0509425,VALID,20.6175,VALID,350,VALID,0.0505208,
2005-05-19, 01:06:00,VALID,917.523,VALID,0,VALID,98.178,VALID,0.0509425,VALID,20.5927,VALID,350,VALID,0.00109012,
2005-05-19, 01:07:00,VALID,917.52,VALID,0,VALID,98.4858,VALID,-0.0169808,VALID,20.5969,VALID,350,VALID,0,
2005-05-19, 01:08:00,VALID,917.529,VALID,0,VALID,98.351,VALID,-0.0169808,VALID,20.5937,VALID,350,VALID,0,
2005-05-19, 01:09:00,VALID,917.524,VALID,0,VALID,98.2645,VALID,0,VALID,20.5746,VALID,350,VALID,0,
2005-05-19, 01:10:00,VALID,917.527,VALID,0,VALID,98.3395,VALID,-0.0169808,VALID,20.5517,VALID,350,VALID,0,
2005-05-19, 01:11:00,VALID,917.51,VALID,0,VALID,98.351,VALID,0,VALID,20.5353,VALID,350,VALID,0.00914634,
2005-05-19, 01:12:00,VALID,917.509,VALID,0,VALID,97.9517,VALID,0,VALID,20.4939,VALID,350,VALID,0.426153,
2005-05-19, 01:13:00,VALID,917.492,VALID,0,VALID,97.8538,VALID,0,VALID,20.4352,VALID,350,VALID,0.462838,
2005-05-19, 01:14:00,VALID,917.5,VALID,0,VALID,97.9555,VALID,0,VALID,20.4131,VALID,350,VALID,0.7141,
2005-05-19, 01:15:00,VALID,917.493,VALID,0,VALID,98.4158,VALID,-0.0169808,VALID,20.3776,VALID,350,VALID,0.463986,
2005-05-19, 01:16:00,VALID,917.486,VALID,0,VALID,98.7948,VALID,0,VALID,20.3808,VALID,350,VALID,0.476563,
2005-05-19, 01:17:00,VALID,917.481,VALID,0,VALID,98.6638,VALID,-0.0169808,VALID,20.3652,VALID,350,VALID,0.29742,
2005-05-19, 01:18:00,VALID,917.475,VALID,0,VALID,98.4883,VALID,-0.0169808,VALID,20.313,VALID,350,VALID,0.124238,
2005-05-19, 01:19:00,VALID,917.466,VALID,0,VALID,98.6587,VALID,0,VALID,20.313,VALID,350,VALID,0.119496,
2005-05-19, 01:20:00,VALID,917.458,VALID,0,VALID,98.5468,VALID,-0.0169808,VALID,20.3065,VALID,350,VALID,0.0101744,
2005-05-19, 01:21:00,VALID,917.439,VALID,0,VALID,98.5315,VALID,-0.0509425,VALID,20.3001,VALID,350,VALID,0,
2005-05-19, 01:22:00,VALID,917.427,VALID,0,VALID,98.4553,VALID,-0.0339617,VALID,20.2979,VALID,350,VALID,0,
2005-05-19, 01:23:00,VALID,917.403,VALID,0,VALID,98.5977,VALID,0,VALID,20.3003,VALID,350,VALID,0,
2005-05-19, 01:24:00,VALID,917.387,VALID,0,VALID,98.7325,VALID,-0.0169808,VALID,20.3133,VALID,350,VALID,0.273065,
2005-05-19, 01:25:00,VALID,917.377,VALID,0,VALID,98.9003,VALID,0,VALID,20.3324,VALID,350,VALID,0.324414,
2005-05-19, 01:26:00,VALID,917.36,VALID,0,VALID,98.8482,VALID,-0.0509425,VALID,20.359,VALID,350,VALID,0.234012,
2005-05-19, 01:27:00,VALID,917.348,VALID,0,VALID,98.913,VALID,-0.0509425,VALID,20.3617,VALID,350,VALID,0.128299,
2005-05-19, 01:28:00,VALID,917.333,VALID,0,VALID,98.7058,VALID,-0.0679233,VALID,20.3654,VALID,350,VALID,0.289757,
2005-05-19, 01:29:00,VALID,917.292,VALID,0,VALID,98.4692,VALID,0,VALID,20.3197,VALID,350,VALID,0.0672238,
2005-05-19, 01:30:00,VALID,917.258,VALID,0,VALID,98.5722,VALID,-0.0169808,VALID,20.3036,VALID,350,VALID,0.172619,
2005-05-19, 01:31:00,VALID,917.224,VALID,0,VALID,98.913,VALID,-0.0339617,VALID,20.3041,VALID,350,VALID,0.093564,
2005-05-19, 01:32:00,VALID,917.205,VALID,0,VALID,99.058,VALID,-0.0339617,VALID,20.3103,VALID,350,VALID,0,
2005-05-19, 01:33:00,VALID,917.182,VALID,0,VALID,98.8978,VALID,-0.0169808,VALID,20.2939,VALID,350,VALID,0,
2005-05-19, 01:34:00,VALID,917.152,VALID,0,VALID,98.777,VALID,0,VALID,20.2909,VALID,350,VALID,0.0012429,
2005-05-19, 01:35:00,VALID,917.128,VALID,0,VALID,98.44,VALID,-0.0169808,VALID,20.2651,VALID,350,VALID,0,
2005-05-19, 01:36:00,VALID,917.117,VALID,0,VALID,97.9174,VALID,0,VALID,20.2069,VALID,350,VALID,0.0959109,
2005-05-19, 01:37:00,VALID,917.1,VALID,0,VALID,97.7076,VALID,-0.0509425,VALID,20.1593,VALID,350,VALID,0.155849,
2005-05-19, 01:38:00,VALID,917.089,VALID,0,VALID,98.0369,VALID,-0.0339617,VALID,20.1237,VALID,350,VALID,0.170455,
2005-05-19, 01:39:00,VALID,917.079,VALID,0,VALID,98.4222,VALID,0,VALID,20.1302,VALID,350,VALID,0.239347,
2005-05-19, 01:40:00,VALID,917.07,VALID,0,VALID,98.4514,VALID,-0.0509425,VALID,20.1076,VALID,350,VALID,0.05,
2005-05-19, 01:41:00,VALID,917.061,VALID,0,VALID,98.7655,VALID,-0.0509425,VALID,20.1073,VALID,350,VALID,0.15253,
2005-05-19, 01:42:00,VALID,917.046,VALID,0,VALID,98.7999,VALID,-0.0169808,VALID,20.1039,VALID,350,VALID,0.207564,
2005-05-19, 01:43:00,VALID,917.03,VALID,0,VALID,98.515,VALID,0,VALID,20.0974,VALID,350,VALID,0.4625,
2005-05-19, 01:44:00,VALID,917.02,VALID,0,VALID,97.7533,VALID,0,VALID,20.04,VALID,350,VALID,0.279433,
2005-05-19, 01:45:00,VALID,917.025,VALID,0,VALID,97.2332,VALID,0,VALID,19.9138,VALID,350,VALID,0.497582,
2005-05-19, 01:46:00,VALID,917.007,VALID,0,VALID,98.5061,VALID,0,VALID,19.9367,VALID,350,VALID,0.569196,
2005-05-19, 01:47:00,VALID,917.001,VALID,0,VALID,99.367,VALID,-0.0169808,VALID,19.9908,VALID,350,VALID,0.494922,
2005-05-19, 01:48:00,VALID,916.984,VALID,0,VALID,99.4306,VALID,0,VALID,20.0326,VALID,350,VALID,0.303445,
2005-05-19, 01:49:00,VALID,916.982,VALID,0,VALID,99.0707,VALID,-0.0169808,VALID,20.043,VALID,350,VALID,0.0102307,
2005-05-19, 01:50:00,VALID,916.964,VALID,0,VALID,98.9105,VALID,-0.0169808,VALID,20.0492,VALID,350,VALID,0,
2005-05-19, 01:51:00,VALID,916.937,VALID,0,VALID,98.8253,VALID,-0.0339617,VALID,20.049,VALID,350,VALID,0,
2005-05-19, 01:52:00,VALID,916.935,VALID,0,VALID,98.824,VALID,-0.0679233,VALID,20.0661,VALID,350,VALID,0,
2005-05-19, 01:53:00,VALID,916.918,VALID,0,VALID,98.8622,VALID,-0.101885,VALID,20.0756,VALID,350,VALID,0,
2005-05-19, 01:54:00,VALID,916.906,VALID,0,VALID,98.7528,VALID,-0.101885,VALID,20.0855,VALID,350,VALID,0,
2005-05-19, 01:55:00,VALID,916.891,VALID,0,VALID,98.6663,VALID,-0.0849042,VALID,20.0915,VALID,350,VALID,0,
2005-05-19, 01:56:00,VALID,916.868,VALID,0,VALID,98.6562,VALID,-0.101885,VALID,20.1118,VALID,350,VALID,0,
2005-05-19, 01:57:00,VALID,916.841,VALID,0,VALID,98.5239,VALID,-0.101885,VALID,20.1079,VALID,350,VALID,0.188988,
2005-05-19, 01:58:00,VALID,916.825,VALID,0,VALID,98.3497,VALID,-0.0849042,VALID,20.0855,VALID,350,VALID,0.256722,
2005-05-19, 01:59:00,VALID,916.83,VALID,0,VALID,98.1157,VALID,-0.101885,VALID,20.05,VALID,350,VALID,0.227095,
2005-05-19, 02:00:00,VALID,916.824,VALID,0,VALID,98.2976,VALID,-0.101885,VALID,20.0373,VALID,350,VALID,0,
2005-05-19, 02:01:00,VALID,916.84,VALID,0,VALID,98.281,VALID,-0.101885,VALID,20.0276,VALID,350,VALID,0,
2005-05-19, 02:02:00,VALID,916.861,VALID,0,VALID,98.159,VALID,-0.101885,VALID,20.011,VALID,350,VALID,0,
2005-05-19, 02:03:00,VALID,916.851,VALID,0,VALID,98.0865,VALID,-0.0679233,VALID,20.005,VALID,350,VALID,0,
2005-05-19, 02:04:00,VALID,916.86,VALID,0,VALID,98.1577,VALID,-0.0849042,VALID,19.9913,VALID,350,VALID,0,
2005-05-19, 02:05:00,VALID,916.856,VALID,0,VALID,98.0191,VALID,-0.101885,VALID,19.9986,VALID,350,VALID,0,
2005-05-19, 02:06:00,VALID,916.846,VALID,0,VALID,98.1615,VALID,-0.0679233,VALID,20.005,VALID,350,VALID,0,
2005-05-19, 02:07:00,VALID,916.858,VALID,0,VALID,97.719,VALID,-0.0849042,VALID,19.9824,VALID,350,VALID,0.00651042,
2005-05-19, 02:08:00,VALID,916.879,VALID,0,VALID,97.0044,VALID,-0.0849042,VALID,19.9114,VALID,350,VALID,0.0950521,
2005-05-19, 02:09:00,VALID,916.892,VALID,0,VALID,96.6203,VALID,-0.0849042,VALID,19.8438,VALID,358,VALID,0.329985,
2005-05-19, 02:10:00,VALID,916.91,VALID,0,VALID,97.0883,VALID,-0.101885,VALID,19.7946,VALID,358,VALID,0.373402,
2005-05-19, 02:11:00,VALID,916.911,VALID,0,VALID,97.2625,VALID,-0.101885,VALID,19.7469,VALID,358,VALID,0.497275,
2005-05-19, 02:12:00,VALID,916.902,VALID,0,VALID,97.452,VALID,-0.118866,VALID,19.7179,VALID,357,VALID,0.660069,
2005-05-19, 02:13:00,VALID,916.899,VALID,0,VALID,97.8843,VALID,-0.101885,VALID,19.7405,VALID,355,VALID,0.432664,
2005-05-19, 02:14:00,VALID,916.882,VALID,0,VALID,97.7991,VALID,-0.0679233,VALID,19.7598,VALID,355,VALID,0.243359,
2005-05-19, 02:15:00,VALID,916.875,VALID,0,VALID,97.8805,VALID,-0.101885,VALID,19.8145,VALID,355,VALID,0.258721,
2005-05-19, 02:16:00,VALID,916.877,VALID,0,VALID,97.8614,VALID,-0.101885,VALID,19.8341,VALID,355,VALID,0.134448,
2005-05-19, 02:17:00,VALID,916.869,VALID,0,VALID,97.5155,VALID,-0.101885,VALID,19.8336,VALID,355,VALID,0.00520833,
2005-05-19, 02:18:00,VALID,916.868,VALID,0,VALID,97.2193,VALID,-0.118866,VALID,19.8217,VALID,355,VALID,0,
2005-05-19, 02:19:00,VALID,916.862,VALID,0,VALID,97.073,VALID,-0.101885,VALID,19.7892,VALID,355,VALID,0,
2005-05-19, 02:20:00,VALID,916.861,VALID,0,VALID,96.8975,VALID,-0.101885,VALID,19.7338,VALID,355,VALID,0,
2005-05-19, 02:21:00,VALID,916.873,VALID,0,VALID,97.0997,VALID,-0.0849042,VALID,19.6985,VALID,355,VALID,0,
2005-05-19, 02:22:00,VALID,916.882,VALID,0,VALID,97.3324,VALID,-0.0169808,VALID,19.6719,VALID,355,VALID,0,
2005-05-19, 02:23:00,VALID,916.88,VALID,0,VALID,97.9644,VALID,0,VALID,19.6876,VALID,355,VALID,0,
2005-05-19, 02:24:00,VALID,916.886,VALID,0,VALID,98.2086,VALID,0,VALID,19.7064,VALID,355,VALID,0,
2005-05-19, 02:25:00,VALID,916.872,VALID,0,VALID,98.3573,VALID,-0.0339617,VALID,19.7333,VALID,355,VALID,0,
2005-05-19, 02:26:00,VALID,916.875,VALID,0,VALID,98.7147,VALID,0,VALID,19.781,VALID,355,VALID,0,
2005-05-19, 02:27:00,VALID,916.87,VALID,0,VALID,98.6752,VALID,-0.0169808,VALID,19.7812,VALID,355,VALID,0.213914,
2005-05-19, 02:28:00,VALID,916.856,VALID,0,VALID,99.1763,VALID,-0.0169808,VALID,19.8331,VALID,355,VALID,0.320313,
2005-05-19, 02:29:00,VALID,916.835,VALID,0,VALID,99.7319,VALID,0,VALID,19.8716,VALID,355,VALID,0.0659299,
2005-05-19, 02:30:00,VALID,916.816,VALID,0,VALID,99.9367,VALID,-0.0169808,VALID,19.8912,VALID,355,VALID,0,
2005-05-19, 02:31:00,VALID,916.802,VALID,0,VALID,99.9964,VALID,-0.0339617,VALID,19.8883,VALID,355,VALID,0,
2005-05-19, 02:32:00,VALID,916.776,VALID,0,VALID,99.9499,VALID,-0.0169808,VALID,19.8982,VALID,355,VALID,0,
2005-05-19, 02:33:00,VALID,916.742,VALID,0,VALID,99.6073,VALID,0,VALID,19.8532,VALID,355,VALID,0,
2005-05-19, 02:34:00,VALID,916.743,VALID,0,VALID,99.4675,VALID,-0.0169808,VALID,19.8068,VALID,355,VALID,0,
2005-05-19, 02:35:00,VALID,916.738,VALID,0,VALID,99.3047,VALID,0,VALID,19.7976,VALID,355,VALID,0,
2005-05-19, 02:36:00,VALID,916.738,VALID,0,VALID,99.3873,VALID,-0.0509425,VALID,19.7986,VALID,355,VALID,0,
2005-05-19, 02:37:00,VALID,916.735,VALID,0,VALID,99.7904,VALID,-0.118866,VALID,19.8254,VALID,355,VALID,0,
2005-05-19, 02:38:00,VALID,916.725,VALID,0,VALID,99.9977,VALID,-0.101885,VALID,19.8669,VALID,355,VALID,0,
2005-05-19, 02:39:00,VALID,916.724,VALID,0,VALID,99.8194,VALID,-0.135847,VALID,19.8545,VALID,355,VALID,0,
2005-05-19, 02:40:00,VALID,916.738,VALID,0,VALID,99.6111,VALID,-0.135847,VALID,19.8155,VALID,355,VALID,0,
2005-05-19, 02:41:00,VALID,916.745,VALID,0,VALID,99.7052,VALID,-0.118866,VALID,19.8058,VALID,355,VALID,0,
2005-05-19, 02:42:00,VALID,916.75,VALID,0,VALID,99.5883,VALID,-0.101885,VALID,19.7611,VALID,355,VALID,0,
2005-05-19, 02:43:00,VALID,916.745,VALID,0,VALID,99.601,VALID,-0.135847,VALID,19.7251,VALID,355,VALID,0,
2005-05-19, 02:44:00,VALID,916.758,VALID,0,VALID,99.3352,VALID,-0.118866,VALID,19.6672,VALID,355,VALID,0.0215774,
2005-05-19, 02:45:00,VALID,916.755,VALID,0,VALID,99.5666,VALID,-0.135847,VALID,19.6766,VALID,343,VALID,0.498326,
2005-05-19, 02:46:00,VALID,916.753,VALID,0,VALID,99.428,VALID,-0.118866,VALID,19.6506,VALID,307,VALID,0.528392,
2005-05-19, 02:47:00,VALID,916.759,VALID,0,VALID,99.7917,VALID,-0.118866,VALID,19.6925,VALID,307,VALID,0.318109,
2005-05-19, 02:48:00,VALID,916.745,VALID,0,VALID,100,VALID,-0.101885,VALID,19.7407,VALID,307,VALID,0.303779,
2005-05-19, 02:49:00,VALID,916.746,VALID,0,VALID,100,VALID,-0.118866,VALID,19.7574,VALID,307,VALID,0.0317708,
2005-05-19, 02:50:00,VALID,916.731,VALID,0,VALID,100,VALID,-0.152827,VALID,19.738,VALID,307,VALID,0,
2005-05-19, 02:51:00,VALID,916.715,VALID,0,VALID,100,VALID,-0.0849042,VALID,19.7283,VALID,307,VALID,0,
2005-05-19, 02:52:00,VALID,916.694,VALID,0,VALID,100,VALID,0,VALID,19.7042,VALID,307,VALID,0,
2005-05-19, 02:53:00,VALID,916.678,VALID,0,VALID,100,VALID,0,VALID,19.7042,VALID,307,VALID,0,
2005-05-19, 02:54:00,VALID,916.661,VALID,0,VALID,100,VALID,-0.0339617,VALID,19.74,VALID,307,VALID,0,
2005-05-19, 02:55:00,VALID,916.644,VALID,0,VALID,100,VALID,-0.0679233,VALID,19.7919,VALID,307,VALID,0,
2005-05-19, 02:56:00,VALID,916.616,VALID,0,VALID,100,VALID,-0.0339617,VALID,19.8177,VALID,307,VALID,0,
2005-05-19, 02:57:00,VALID,916.599,VALID,0,VALID,99.9914,VALID,-0.0169808,VALID,19.779,VALID,307,VALID,0,
2005-05-19, 02:58:00,VALID,916.572,VALID,0,VALID,99.7536,VALID,0,VALID,19.7204,VALID,307,VALID,0,
2005-05-19, 02:59:00,VALID,916.563,VALID,0,VALID,99.5527,VALID,0,VALID,19.6719,VALID,307,VALID,0,
2005-05-19, 03:00:00,VALID,916.562,VALID,0,VALID,99.5717,VALID,0,VALID,19.6819,VALID,307,VALID,0,
2005-05-19, 03:01:00,VALID,916.569,VALID,0,VALID,99.7447,VALID,-0.0169808,VALID,19.7139,VALID,307,VALID,0,
2005-05-19, 03:02:00,VALID,916.589,VALID,0,VALID,99.7243,VALID,0,VALID,19.7367,VALID,307,VALID,0.114826,
2005-05-19, 03:03:00,VALID,916.613,VALID,0,VALID,99.9598,VALID,0,VALID,19.7849,VALID,307,VALID,0.389027,
2005-05-19, 03:04:00,VALID,916.608,VALID,0,VALID,100,VALID,0,VALID,19.8331,VALID,307,VALID,0.160764,
2005-05-19, 03:05:00,VALID,916.611,VALID,0,VALID,100,VALID,0,VALID,19.8433,VALID,307,VALID,0.0948401,
2005-05-19, 03:06:00,VALID,916.602,VALID,0,VALID,100,VALID,-0.0509425,VALID,19.8244,VALID,307,VALID,0,
2005-05-19, 03:07:00,VALID,916.582,VALID,0,VALID,99.8398,VALID,-0.0849042,VALID,19.7705,VALID,307,VALID,0.0398247,
2005-05-19, 03:08:00,VALID,916.581,VALID,0,VALID,99.7383,VALID,-0.0849042,VALID,19.7477,VALID,307,VALID,0.0133168,
2005-05-19, 03:09:00,VALID,916.569,VALID,0,VALID,99.6773,VALID,-0.118866,VALID,19.7447,VALID,307,VALID,0,
2005-05-19, 03:10:00,VALID,916.561,VALID,0,VALID,99.7256,VALID,-0.101885,VALID,19.738,VALID,307,VALID,0,
2005-05-19, 03:11:00,VALID,916.544,VALID,0,VALID,99.9588,VALID,-0.135847,VALID,19.7546,VALID,307,VALID,0,
2005-05-19, 03:12:00,VALID,916.518,VALID,0,VALID,99.9672,VALID,-0.135847,VALID,19.7576,VALID,307,VALID,0,
2005-05-19, 03:13:00,VALID,916.502,VALID,0,VALID,99.1597,VALID,-0.118866,VALID,19.5991,VALID,307,VALID,0.00213068,
2005-05-19, 03:14:00,VALID,916.498,VALID,0,VALID,99.2602,VALID,-0.169808,VALID,19.5353,VALID,307,VALID,0,
2005-05-19, 03:15:00,VALID,916.503,VALID,0,VALID,99.4535,VALID,-0.118866,VALID,19.4931,VALID,307,VALID,0,
2005-05-19, 03:16:00,VALID,916.511,VALID,0,VALID,99.7243,VALID,-0.118866,VALID,19.4772,VALID,307,VALID,0,
2005-05-19, 03:17:00,VALID,916.505,VALID,0,VALID,99.8388,VALID,-0.152827,VALID,19.4643,VALID,307,VALID,0,
2005-05-19, 03:18:00,VALID,916.479,VALID,0,VALID,99.9316,VALID,-0.135847,VALID,19.4474,VALID,307,VALID,0,
2005-05-19, 03:19:00,VALID,916.463,VALID,0,VALID,99.6455,VALID,-0.169808,VALID,19.4285,VALID,307,VALID,0,
2005-05-19, 03:20:00,VALID,916.451,VALID,0,VALID,99.0071,VALID,-0.135847,VALID,19.312,VALID,343,VALID,0.416349,
2005-05-19, 03:21:00,VALID,916.445,VALID,0,VALID,99.0466,VALID,-0.135847,VALID,19.2442,VALID,13,VALID,0.396129,
2005-05-19, 03:22:00,VALID,916.47,VALID,0,VALID,99.2627,VALID,-0.0339617,VALID,19.1911,VALID,13,VALID,0.142149,
2005-05-19, 03:23:00,VALID,916.477,VALID,0,VALID,99.8408,VALID,0,VALID,19.2112,VALID,13,VALID,0.00260417,
2005-05-19, 03:24:00,VALID,916.491,VALID,0,VALID,100,VALID,-0.0509425,VALID,19.2142,VALID,13,VALID,0,
2005-05-19, 03:25:00,VALID,916.512,VALID,0,VALID,100,VALID,0,VALID,19.2172,VALID,13,VALID,0,
2005-05-19, 03:26:00,VALID,916.534,VALID,0,VALID,100,VALID,0,VALID,19.2624,VALID,13,VALID,0,
2005-05-19, 03:27:00,VALID,916.55,VALID,0,VALID,100,VALID,-0.0169808,VALID,19.2944,VALID,13,VALID,0,
2005-05-19, 03:28:00,VALID,916.562,VALID,0,VALID,100,VALID,-0.0339617,VALID,19.35,VALID,13,VALID,0,
2005-05-19, 03:29:00,VALID,916.55,VALID,0,VALID,100,VALID,-0.0169808,VALID,19.3684,VALID,13,VALID,0,
2005-05-19, 03:30:00,VALID,916.557,VALID,0,VALID,100,VALID,-0.0169808,VALID,19.359,VALID,13,VALID,0,
2005-05-19, 03:31:00,VALID,916.554,VALID,0,VALID,99.9977,VALID,0,VALID,19.3364,VALID,13,VALID,0,
2005-05-19, 03:32:00,VALID,916.546,VALID,0,VALID,99.8896,VALID,-0.0339617,VALID,19.3302,VALID,13,VALID,0,
2005-05-19, 03:33:00,VALID,916.544,VALID,0,VALID,99.7854,VALID,-0.0339617,VALID,19.2946,VALID,13,VALID,0,
2005-05-19, 03:34:00,VALID,916.535,VALID,0,VALID,99.6582,VALID,0,VALID,19.2852,VALID,13,VALID,0,
2005-05-19, 03:35:00,VALID,916.539,VALID,0,VALID,99.5768,VALID,0,VALID,19.2624,VALID,13,VALID,0,
2005-05-19, 03:36:00,VALID,916.548,VALID,0,VALID,99.8235,VALID,0,VALID,19.2621,VALID,13,VALID,0,
2005-05-19, 03:37:00,VALID,916.534,VALID,0,VALID,99.998,VALID,-0.0169808,VALID,19.2785,VALID,13,VALID,0,